899 
ASUS46 KSEW 211210
RWRWA 

WASHINGTON REGIONAL WEATHER ROUNDUP
NATIONAL WEATHER SERVICE SEATTLE WA
500 AM PDT THU SEP 21 2017

NOTE:"FAIR" INDICATES FEW OR NO CLOUDS BELOW 12,000 FEET WITH NO 
SIGNIFICANT WEATHER AND/OR OBSTRUCTIONS TO VISIBILITY.

WAZ507-509-555>559-211300-
SEATTLE, TACOMA, EVERETT, AND VICINITY
  
CITY           SKY/WX    TMP DP  RH WIND       PRES   REMARKS
EVERETT        CLOUDY    50  48  93 SE6       29.88R                  
6HR MIN TEMP:  50; 6HR MAX TEMP:  52; 6HR PCP: TRACE;                

BOEING FIELD   CLOUDY    51  50  96 SE8       29.87S                  
6HR MIN TEMP:  51; 6HR MAX TEMP:  53; 6HR PCP: TRACE;                

RENTON         CLOUDY    51  49  92 SE3       29.87S                  
6HR MIN TEMP:  51; 6HR MAX TEMP:  52;                                

SEATAC AIRPORT LGT RAIN  51  48  89 S8        29.87R                  
6HR MIN TEMP:  50; 6HR MAX TEMP:  53; 6HR PCP: TRACE;                

JBLM-MCCHORD   CLOUDY    47  47 100 CALM      29.87S                  
6HR MIN TEMP:  45; 6HR MAX TEMP:  50;                                

PUYALLUP       CLOUDY    48  48 100 CALM      29.88R                  
BREMERTON      FOG       48  48 100 CALM      29.87R VSB 1/2          
6HR MIN TEMP:  44; 6HR MAX TEMP:  49;                                

JBLM-FT LEWIS  CLOUDY    47  47 100 SE3       29.87R                  
6HR MIN TEMP:  47; 6HR MAX TEMP:  51;                                

TACOMA NARROWS CLOUDY    50  48  93 S6        29.87S                  
6HR MIN TEMP:  49; 6HR MAX TEMP:  51;                                

$$
 
WAZ001-503-506-510-514-515-211300-
NORTH INTERIOR
  
CITY           SKY/WX    TMP DP  RH WIND       PRES   REMARKS
BELLINGHAM     CLOUDY    50  49  96 NE3       29.87R                  
6HR MIN TEMP:  50; 6HR MAX TEMP:  55; 6HR PCP: TRACE;                

FRIDAY HARBOR  CLOUDY    48  48 100 CALM      29.88R                  
6HR MIN TEMP:  47; 6HR MAX TEMP:  50;                                

EASTSOUND      CLOUDY    52  48  87 S8        29.86F                  
PORT ANGELES   MOCLDY    46  42  86 SW6       29.88R                  
6HR MIN TEMP:  45; 6HR MAX TEMP:  50;                                

EDIZ HOOK      FAIR      48  45  88 SW3       29.87S                  
6HR MIN TEMP:  47; 6HR MAX TEMP:  50;                                

PORT TOWNSEND  CLOUDY    46  46 100 CALM      29.88R                  
NAS WHIDBEY    CLOUDY    53  48  83 SE3       29.91R                  
6HR MIN TEMP:  51; 6HR MAX TEMP:  54; 6HR PCP:  0.03;                

ARLINGTON      CLOUDY    50  48  93 CALM      29.88R                  
6HR MIN TEMP:  47; 6HR MAX TEMP:  50; 6HR PCP:  0.01;                

BURLINGTON     CLOUDY    50  50 100 CALM      29.87S                  
$$
 
WAZ020-022-039-040-504-511-512-211300-
SOUTHWEST INTERIOR
  
CITY           SKY/WX    TMP DP  RH WIND       PRES   REMARKS
SHELTON        CLOUDY    49  48  97 SW6       29.85R                  
6HR MIN TEMP:  45; 6HR MAX TEMP:  50;                                

OLYMPIA        CLOUDY    48  47  96 CALM      29.87R                  
6HR MIN TEMP:  48; 6HR MAX TEMP:  50;                                

CHEHALIS       CLOUDY    48  48 100 SW5       29.89R                  
KELSO          CLOUDY    50  48  93 SE7       29.91R                  
6HR MIN TEMP:  48; 6HR MAX TEMP:  50;                                

VANCOUVER      CLOUDY    49  49 100 SE6       29.91R                  
6HR MIN TEMP:  49; 6HR MAX TEMP:  51;                                

SCAPPOOSE, OR  CLOUDY    45  45 100 CALM      29.90R                  
6HR MIN TEMP:  42; 6HR MAX TEMP:  48;                                

PORTLAND, OR   CLOUDY    49  49 100 SE5       29.91S                  
6HR MIN TEMP:  48; 6HR MAX TEMP:  50;                                

$$
 
WAZ021-516-517-211300-
WASHINGTON COAST
  
CITY           SKY/WX    TMP DP  RH WIND       PRES   REMARKS
FORKS          MOCLDY    43  41  93 CALM      29.87R                  
6HR MIN TEMP:  42; 6HR MAX TEMP:  47;                                

HOQUIAM        MOCLDY    47  46  97 NE6       29.87S FOG              
6HR MIN TEMP:  47; 6HR MAX TEMP:  54;                                

ASTORIA, OR    MOCLDY    48  45  89 E5        29.87R                  
6HR MIN TEMP:  47; 6HR MAX TEMP:  50;                                

$$
 
WAZ019-023-024-040-567>569-211300-
CASCADE MOUNTAINS AND COLUMBIA GORGE
  
CITY           SKY/WX    TMP DP  RH WIND       PRES   REMARKS
STAMPEDE PASS  NOT AVBL                                               
TROUTDALE, OR  CLOUDY    50  48  93 CALM      29.91R                  
6HR MIN TEMP:  48; 6HR MAX TEMP:  51; 6HR PCP:  0.03;                

HOOD RIVER, OR NOT AVBL                                               
THE DALLES, OR PTCLDY    51  45  79 VRB6      29.85R                  
6HR MIN TEMP:  47; 6HR MAX TEMP:  53;                                

$$

WAZ026-027-041>044-520-521-211300-
EAST SLOPES
  
CITY           SKY/WX    TMP DP  RH WIND       PRES   REMARKS
OMAK           CLOUDY    44  44 100 NW6       29.82R                  
6HR MIN TEMP:  44; 6HR MAX TEMP:  49; 6HR PCP:  0.03;                

WENATCHEE      CLOUDY    50  36  58 N3        29.80R                  
6HR MIN TEMP:  47; 6HR MAX TEMP:  50;                                

ELLENSBURG     CLOUDY    49  38  65 NW13      29.80R                  
6HR MIN TEMP:  47; 6HR MAX TEMP:  49;                                

YAKIMA         CLOUDY    40  35  83 NE3       29.82R                  
6HR MIN TEMP:  36; 6HR MAX TEMP:  42;                                

SUNNYSIDE ARPT MOSUNNY   35  34  98 CALM      29.83S                  
6HR MIN TEMP:  34; 6HR MAX TEMP:  39;                                

YAKIMA TC      PTSUNNY   42  35  76 CALM      29.80R                  
6HR MIN TEMP:  40; 6HR MAX TEMP:  45; 6HR PCP:  0.01;                

$$

WAZ028-034-035-211300-
COLUMBIA BASIN
  
CITY           SKY/WX    TMP DP  RH WIND       PRES   REMARKS
EPHRATA        MOCLDY    42  36  79 N5        29.81R                  
6HR MIN TEMP:  39; 6HR MAX TEMP:  43;                                

MOSES LAKE     MOCLDY    38  36  92 N5        29.82R                  
6HR MIN TEMP:  35; 6HR MAX TEMP:  43;                                

PASCO          CLEAR     44  41  89 CALM      29.83R                  
6HR MIN TEMP:  40; 6HR MAX TEMP:  50;                                

RICHLAND ARPT  SUNNY     46  42  86 SW6       29.83R                  
6HR MIN TEMP:  44; 6HR MAX TEMP:  50;                                

HERMISTON, OR  CLEAR     48  40  73 SW8       29.84R                  
6HR MIN TEMP:  45; 6HR MAX TEMP:  49;                                

$$

WAZ036>038-211300-
NORTHEAST WASHINGTON
  
CITY           SKY/WX    TMP DP  RH WIND       PRES   REMARKS
SPOKANE GEIGER CLOUDY    40  40 100 S6        29.81R                  
6HR MIN TEMP:  39; 6HR MAX TEMP:  42;                                

SPOKANE FELTS  CLOUDY    45  43  93 CALM      29.82R                  
6HR MIN TEMP:  44; 6HR MAX TEMP:  47;                                

FAIRCHILD AFB  CLOUDY    40  40 100 S5        29.79S                  
6HR MIN TEMP:  35; 6HR MAX TEMP:  40; 6HR PCP: TRACE;                

COEURDALENE,ID CLOUDY    44  40  85 S7        29.81R                  
6HR MIN TEMP:  40; 6HR MAX TEMP:  44;                                

DEER PARK      LGT RAIN  42  41  96 S5        29.81R                  
6HR MIN TEMP:  35; 6HR MAX TEMP:  42; 6HR PCP:  0.01;                

$$

WAZ029>033-211300-
SOUTHEAST WASHINGTON
  
CITY           SKY/WX    TMP DP  RH WIND       PRES   REMARKS
PULLMAN        CLEAR     41  38  89 NW3       29.83R                  
6HR MIN TEMP:  40; 6HR MAX TEMP:  45;                                

LEWISTON, ID   CLOUDY    44  42  93 S3        29.82R                  
6HR MIN TEMP:  43; 6HR MAX TEMP:  50;                                

WALLA WALLA    CLOUDY    49  41  74 S7        29.84R                  
6HR MIN TEMP:  47; 6HR MAX TEMP:  51;                                

PENDLETON, OR  CLOUDY    45  38  76 CALM      29.83R                  
6HR MIN TEMP:  44; 6HR MAX TEMP:  49;                                

$$